Location: Newark
(55.7083°N, 13.1992°E)
Time: 21:24:04
(UTC+00:00)

Transit 4A - Pass Details

Date: 22 February 2020
Orbit: 871 x 973 km, 66.8° (Epoch: 09 April)

Event Time Altitude Azimuth Distance (km) Brightness Sun altitude
Exits shadow 03:29:54 22° 321° (NW) 1,807 9.2 -24.0°
Maximum altitude 03:32:05 28° 355° (N) 1,586 9.2 -23.7°
Drops below altitude 10° 03:37:04 10° 54° (NE) 2,534 11.1 -23.1°
Sets 03:39:56 0° 66° (ENE) 3,480 12.3 -22.7°
